,,Stat5,,Stat1,,Stat2,,Stat3,,Stat4,,Wind1,,Wind1,
time,status,PA1M_AVG,status,PR1M_SUM,status,RH1M_AVG,status,SR1M_AVG,status,TA1M_AVG,status,W1dAve1m,status,W1sAve1m,
2001-03-07, 00:00:00,VALID,918.901,VALID,0,VALID,99.3199,VALID,0.0679233,VALID,19.4055,VALID,127,VALID,0,
2001-03-07, 00:01:00,VALID,918.895,VALID,0,VALID,99.306,VALID,0.0679233,VALID,19.3757,VALID,104,VALID,0,
2001-03-07, 00:02:01,VALID,918.87,VALID,0,VALID,99.306,VALID,0.0509425,VALID,19.37,VALID,100,VALID,0.280248,
2001-03-07, 00:03:00,VALID,918.852,VALID,0,VALID,99.3187,VALID,0.0339617,VALID,19.3732,VALID,103,VALID,0.872944,
2001-03-07, 00:04:00,VALID,918.839,VALID,0,VALID,99.3225,VALID,0.0339617,VALID,19.3663,VALID,102,VALID,0.886285,
2001-03-07, 00:05:00,VALID,918.815,VALID,0,VALID,99.3263,VALID,0.0339617,VALID,19.3772,VALID,94,VALID,0.827539,
2001-03-07, 00:06:00,VALID,918.809,VALID,0,VALID,99.3276,VALID,-0.0509425,VALID,19.3645,VALID,95,VALID,0.845508,
2001-03-07, 00:07:00,VALID,918.8,VALID,0,VALID,99.3238,VALID,-0.0339617,VALID,19.3578,VALID,89,VALID,0.790707,
2001-03-07, 00:08:00,VALID,918.795,VALID,0,VALID,99.3263,VALID,-0.0339617,VALID,19.3675,VALID,85,VALID,0.879954,
2001-03-07, 00:09:00,VALID,918.799,VALID,0,VALID,99.3352,VALID,-0.0679233,VALID,19.3839,VALID,81,VALID,0.830729,
2001-03-07, 00:10:00,VALID,918.797,VALID,0,VALID,99.3276,VALID,-0.0679233,VALID,19.3936,VALID,77,VALID,0.802998,
2001-03-07, 00:11:00,VALID,918.803,VALID,0,VALID,99.325,VALID,-0.0509425,VALID,19.3998,VALID,78,VALID,0.765419,
2001-03-07, 00:12:00,VALID,918.817,VALID,0,VALID,99.3352,VALID,-0.0509425,VALID,19.4157,VALID,79,VALID,0.703795,
2001-03-07, 00:13:00,VALID,918.817,VALID,0,VALID,99.3339,VALID,-0.0679233,VALID,19.4321,VALID,77,VALID,0.65625,
2001-03-07, 00:14:00,VALID,918.821,VALID,0,VALID,99.3466,VALID,-0.0509425,VALID,19.4453,VALID,68,VALID,0.783727,
2001-03-07, 00:15:00,VALID,918.821,VALID,0,VALID,99.3428,VALID,-0.0509425,VALID,19.452,VALID,75,VALID,0.528045,
2001-03-07, 00:16:00,VALID,918.814,VALID,0,VALID,99.3377,VALID,-0.0849042,VALID,19.4617,VALID,55,VALID,0.607171,
2001-03-07, 00:17:00,VALID,918.812,VALID,0,VALID,99.3314,VALID,-0.0169808,VALID,19.4483,VALID,65,VALID,0.43935,
2001-03-07, 00:18:00,VALID,918.779,VALID,0,VALID,99.3314,VALID,-0.0339617,VALID,19.4783,VALID,93,VALID,0.652114,
2001-03-07, 00:19:00,VALID,918.756,VALID,0,VALID,99.3314,VALID,-0.0169808,VALID,19.4617,VALID,77,VALID,0.756944,
2001-03-07, 00:20:00,VALID,918.716,VALID,0,VALID,99.3327,VALID,-0.0169808,VALID,19.4517,VALID,65,VALID,0.811316,
2001-03-07, 00:21:00,VALID,918.706,VALID,0,VALID,99.325,VALID,-0.0339617,VALID,19.4515,VALID,102,VALID,0.605785,
2001-03-07, 00:22:00,VALID,918.676,VALID,0,VALID,99.3225,VALID,-0.101885,VALID,19.4458,VALID,84,VALID,0.638327,
2001-03-07, 00:23:00,VALID,918.668,VALID,0,VALID,99.3212,VALID,-0.0339617,VALID,19.4132,VALID,82,VALID,0.368877,
2001-03-07, 00:24:00,VALID,918.661,VALID,0,VALID,99.3187,VALID,-0.0339617,VALID,19.377,VALID,84,VALID,0.412829,
2001-03-07, 00:25:00,VALID,918.633,VALID,0,VALID,99.3199,VALID,-0.0679233,VALID,19.3871,VALID,78,VALID,0.213199,
2001-03-07, 00:26:00,VALID,918.627,VALID,0,VALID,99.3161,VALID,-0.0509425,VALID,19.3876,VALID,78,VALID,0.053125,
2001-03-07, 00:27:00,VALID,918.618,VALID,0,VALID,99.3225,VALID,-0.0849042,VALID,19.3682,VALID,78,VALID,0.0521537,
2001-03-07, 00:28:01,VALID,918.621,VALID,0,VALID,99.3225,VALID,-0.0679233,VALID,19.3712,VALID,77,VALID,0.0303309,
2001-03-07, 00:29:00,VALID,918.614,VALID,0,VALID,99.3288,VALID,-0.101885,VALID,19.368,VALID,74,VALID,0.267103,
2001-03-07, 00:30:00,VALID,918.612,VALID,0,VALID,99.3428,VALID,-0.0339617,VALID,19.374,VALID,75,VALID,0.0107422,
2001-03-07, 00:31:00,VALID,918.602,VALID,0,VALID,99.3403,VALID,-0.0849042,VALID,19.3874,VALID,82,VALID,0.0268429,
2001-03-07, 00:32:00,VALID,918.569,VALID,0,VALID,99.3543,VALID,-0.0169808,VALID,19.407,VALID,82,VALID,0,
2001-03-07, 00:33:00,VALID,918.559,VALID,0,VALID,99.3454,VALID,-0.0509425,VALID,19.4097,VALID,69,VALID,0.370355,
2001-03-07, 00:34:00,VALID,918.526,VALID,0,VALID,99.3454,VALID,-0.0169808,VALID,19.4102,VALID,72,VALID,0.445542,
2001-03-07, 00:35:00,VALID,918.518,VALID,0,VALID,99.3466,VALID,-0.0679233,VALID,19.4033,VALID,71,VALID,0.146115,
2001-03-07, 00:36:00,VALID,918.496,VALID,0,VALID,99.3403,VALID,-0.0679233,VALID,19.4072,VALID,57,VALID,0.217311,
2001-03-07, 00:37:00,VALID,918.485,VALID,0,VALID,99.3352,VALID,-0.0339617,VALID,19.3876,VALID,51,VALID,0.244038,
2001-03-07, 00:38:00,VALID,918.47,VALID,0,VALID,99.325,VALID,-0.0339617,VALID,19.3779,VALID,7,VALID,0.0558036,
2001-03-07, 00:39:00,VALID,918.459,VALID,0,VALID,99.3377,VALID,-0.0339617,VALID,19.3578,VALID,326,VALID,0.0876267,
2001-03-07, 00:40:01,VALID,918.449,VALID,0,VALID,99.3365,VALID,-0.0509425,VALID,19.3682,VALID,309,VALID,0.332721,
2001-03-07, 00:41:00,VALID,918.436,VALID,0,VALID,99.339,VALID,-0.0169808,VALID,19.361,VALID,309,VALID,0.13598,
2001-03-07, 00:42:00,VALID,918.434,VALID,0,VALID,99.3416,VALID,-0.0509425,VALID,19.3615,VALID,309,VALID,0.127686,
2001-03-07, 00:43:00,VALID,918.428,VALID,0,VALID,99.3403,VALID,-0.0169808,VALID,19.3516,VALID,309,VALID,0.00120192,
2001-03-07, 00:44:00,VALID,918.414,VALID,0,VALID,99.339,VALID,-0.0339617,VALID,19.3583,VALID,309,VALID,0,
2001-03-07, 00:45:00,VALID,918.423,VALID,0,VALID,99.3428,VALID,-0.0169808,VALID,19.3516,VALID,309,VALID,0,
2001-03-07, 00:46:00,VALID,918.416,VALID,0,VALID,99.3441,VALID,-0.0509425,VALID,19.3451,VALID,309,VALID,0,
2001-03-07, 00:47:00,VALID,918.405,VALID,0,VALID,99.3556,VALID,-0.0509425,VALID,19.3518,VALID,309,VALID,0,
2001-03-07, 00:48:00,VALID,918.392,VALID,0,VALID,99.3505,VALID,-0.0169808,VALID,19.3514,VALID,309,VALID,0.00493421,
2001-03-07, 00:49:00,VALID,918.366,VALID,0,VALID,99.3441,VALID,-0.0509425,VALID,19.3613,VALID,309,VALID,0.0476974,
2001-03-07, 00:50:00,VALID,918.334,VALID,0,VALID,99.3479,VALID,-0.0339617,VALID,19.3514,VALID,309,VALID,0,
2001-03-07, 00:51:00,VALID,918.3,VALID,0,VALID,99.367,VALID,-0.0339617,VALID,19.3556,VALID,312,VALID,0.00126689,
2001-03-07, 00:52:01,VALID,918.278,VALID,0,VALID,99.3644,VALID,-0.0169808,VALID,19.3389,VALID,315,VALID,0,
2001-03-07, 00:53:01,VALID,918.231,VALID,0,VALID,99.3517,VALID,-0.0339617,VALID,19.3161,VALID,315,VALID,0,
2001-03-07, 00:54:01,VALID,918.196,VALID,0,VALID,99.3543,VALID,-0.0339617,VALID,19.3036,VALID,313,VALID,0,
2001-03-07, 00:55:00,VALID,918.167,VALID,0,VALID,99.3606,VALID,-0.0169808,VALID,19.2969,VALID,308,VALID,0,
2001-03-07, 00:56:00,VALID,918.141,VALID,0,VALID,99.3594,VALID,-0.0339617,VALID,19.2935,VALID,308,VALID,0,
2001-03-07, 00:57:00,VALID,918.123,VALID,0,VALID,99.3606,VALID,-0.0339617,VALID,19.288,VALID,308,VALID,0,
2001-03-07, 00:58:00,VALID,918.112,VALID,0,VALID,99.3657,VALID,-0.0849042,VALID,19.2843,VALID,308,VALID,0,
2001-03-07, 00:59:00,VALID,918.099,VALID,0,VALID,99.3492,VALID,-0.0509425,VALID,19.2579,VALID,295,VALID,0,
2001-03-07, 01:00:00,VALID,918.088,VALID,0,VALID,99.3288,VALID,-0.0339617,VALID,19.2194,VALID,283,VALID,0,
2001-03-07, 01:01:00,VALID,918.091,VALID,0,VALID,99.3327,VALID,-0.0339617,VALID,19.1871,VALID,287,VALID,0,
2001-03-07, 01:02:00,VALID,918.077,VALID,0,VALID,99.3403,VALID,-0.0339617,VALID,19.1806,VALID,288,VALID,0.0638393,
2001-03-07, 01:03:00,VALID,918.081,VALID,0,VALID,99.3505,VALID,-0.0169808,VALID,19.1866,VALID,295,VALID,0.368877,
2001-03-07, 01:04:01,VALID,918.052,VALID,0,VALID,99.3644,VALID,-0.0509425,VALID,19.2005,VALID,278,VALID,0.286075,
2001-03-07, 01:05:00,VALID,918.043,VALID,0,VALID,99.3644,VALID,-0.0509425,VALID,19.1998,VALID,278,VALID,0.0551098,
2001-03-07, 01:06:00,VALID,918.01,VALID,0,VALID,99.381,VALID,-0.0169808,VALID,19.203,VALID,281,VALID,0.0759277,
2001-03-07, 01:07:00,VALID,917.996,VALID,0,VALID,99.3683,VALID,-0.0339617,VALID,19.2164,VALID,281,VALID,0,
2001-03-07, 01:08:00,VALID,917.971,VALID,0,VALID,99.3784,VALID,-0.0339617,VALID,19.2035,VALID,281,VALID,0,
2001-03-07, 01:09:00,VALID,917.945,VALID,0,VALID,99.3466,VALID,-0.0169808,VALID,19.1675,VALID,281,VALID,0,
2001-03-07, 01:10:00,VALID,917.928,VALID,0,VALID,99.3365,VALID,-0.0339617,VALID,19.1352,VALID,281,VALID,0,
2001-03-07, 01:11:00,VALID,917.909,VALID,0,VALID,99.3314,VALID,-0.0509425,VALID,19.0997,VALID,182,VALID,0.238176,
2001-03-07, 01:12:00,VALID,917.886,VALID,0,VALID,99.3009,VALID,0,VALID,19.0321,VALID,116,VALID,0.419819,
2001-03-07, 01:13:00,VALID,917.873,VALID,0,VALID,99.3149,VALID,-0.0169808,VALID,18.9936,VALID,119,VALID,0.525905,
2001-03-07, 01:14:00,VALID,917.847,VALID,0,VALID,99.3377,VALID,-0.0169808,VALID,18.9898,VALID,119,VALID,0.488393,
2001-03-07, 01:15:00,VALID,917.831,VALID,0,VALID,99.3441,VALID,-0.0339617,VALID,18.9839,VALID,123,VALID,0.574113,
2001-03-07, 01:16:01,VALID,917.821,VALID,0,VALID,99.3606,VALID,-0.0339617,VALID,18.9871,VALID,133,VALID,0.661535,
2001-03-07, 01:17:00,VALID,917.812,VALID,0,VALID,99.3695,VALID,-0.0509425,VALID,18.9804,VALID,133,VALID,0.757601,
2001-03-07, 01:18:00,VALID,917.814,VALID,0,VALID,99.3784,VALID,-0.0679233,VALID,18.9873,VALID,138,VALID,0.819092,
2001-03-07, 01:19:00,VALID,917.805,VALID,0,VALID,99.3823,VALID,-0.0509425,VALID,18.9709,VALID,139,VALID,0.882212,
2001-03-07, 01:20:00,VALID,917.798,VALID,0,VALID,99.3644,VALID,-0.0339617,VALID,18.9255,VALID,127,VALID,0.781473,
2001-03-07, 01:21:00,VALID,917.796,VALID,0,VALID,99.3238,VALID,0.0339617,VALID,18.8533,VALID,123,VALID,0.574958,
2001-03-07, 01:22:00,VALID,917.782,VALID,0,VALID,99.2945,VALID,0.0169808,VALID,18.7624,VALID,123,VALID,0.476792,
2001-03-07, 01:23:00,VALID,917.776,VALID,0,VALID,99.2932,VALID,0.0169808,VALID,18.7179,VALID,123,VALID,0.419975,
2001-03-07, 01:24:00,VALID,917.767,VALID,0,VALID,99.3098,VALID,0.0169808,VALID,18.7091,VALID,123,VALID,0.41324,
2001-03-07, 01:25:00,VALID,917.74,VALID,0,VALID,99.3161,VALID,0.0339617,VALID,18.6694,VALID,123,VALID,0.43236,
2001-03-07, 01:26:00,VALID,917.717,VALID,0,VALID,99.3416,VALID,0.0169808,VALID,18.6595,VALID,128,VALID,0.448438,
2001-03-07, 01:27:00,VALID,917.677,VALID,0,VALID,99.409,VALID,0.0509425,VALID,18.7019,VALID,150,VALID,0.51288,
2001-03-07, 01:28:01,VALID,917.655,VALID,0,VALID,99.4535,VALID,0.0509425,VALID,18.7504,VALID,151,VALID,0.566866,
2001-03-07, 01:29:00,VALID,917.619,VALID,0,VALID,99.4725,VALID,0.0339617,VALID,18.7954,VALID,166,VALID,0.442145,
2001-03-07, 01:30:01,VALID,917.61,VALID,0,VALID,99.4738,VALID,0.0339617,VALID,18.8279,VALID,177,VALID,0.410889,
2001-03-07, 01:31:00,VALID,917.577,VALID,0,VALID,99.4522,VALID,0,VALID,18.848,VALID,199,VALID,0.27484,
2001-03-07, 01:32:00,VALID,917.566,VALID,0,VALID,99.4624,VALID,0.0339617,VALID,18.8376,VALID,202,VALID,0.248437,
2001-03-07, 01:33:00,VALID,917.552,VALID,0,VALID,99.4535,VALID,0.0169808,VALID,18.857,VALID,186,VALID,0.157939,
2001-03-07, 01:34:00,VALID,917.533,VALID,0,VALID,99.4598,VALID,0,VALID,18.8604,VALID,186,VALID,0,
2001-03-07, 01:35:00,VALID,917.527,VALID,0,VALID,99.4522,VALID,-0.0169808,VALID,18.8639,VALID,186,VALID,0.291807,
2001-03-07, 01:36:00,VALID,917.519,VALID,0,VALID,99.4827,VALID,-0.0849042,VALID,18.8941,VALID,186,VALID,0.515831,
2001-03-07, 01:37:00,VALID,917.508,VALID,0,VALID,99.4878,VALID,-0.101885,VALID,18.9133,VALID,185,VALID,0.665502,
2001-03-07, 01:38:00,VALID,917.484,VALID,0,VALID,99.4878,VALID,-0.0679233,VALID,18.9426,VALID,182,VALID,0.652455,
2001-03-07, 01:39:00,VALID,917.472,VALID,0,VALID,99.4713,VALID,-0.0849042,VALID,18.9391,VALID,184,VALID,0.611064,
2001-03-07, 01:40:01,VALID,917.447,VALID,0,VALID,99.4522,VALID,-0.0849042,VALID,18.9168,VALID,195,VALID,0.497472,
2001-03-07, 01:41:00,VALID,917.445,VALID,0,VALID,99.4573,VALID,-0.101885,VALID,18.8907,VALID,201,VALID,0.417652,
2001-03-07, 01:42:00,VALID,917.432,VALID,0,VALID,99.4585,VALID,-0.101885,VALID,18.8976,VALID,206,VALID,0.397217,
2001-03-07, 01:43:00,VALID,917.418,VALID,0,VALID,99.4649,VALID,-0.101885,VALID,18.8805,VALID,215,VALID,0.29347,
2001-03-07, 01:44:00,VALID,917.403,VALID,0,VALID,99.4738,VALID,-0.0849042,VALID,18.8845,VALID,231,VALID,0.565179,
2001-03-07, 01:45:00,VALID,917.393,VALID,0,VALID,99.4687,VALID,-0.101885,VALID,18.8937,VALID,243,VALID,0.663851,
2001-03-07, 01:46:01,VALID,917.388,VALID,0,VALID,99.4509,VALID,-0.0849042,VALID,18.8907,VALID,246,VALID,0.723805,
2001-03-07, 01:47:00,VALID,917.387,VALID,0,VALID,99.4496,VALID,-0.101885,VALID,18.8683,VALID,247,VALID,0.734375,
2001-03-07, 01:48:01,VALID,917.368,VALID,0,VALID,99.4484,VALID,-0.101885,VALID,18.8648,VALID,248,VALID,0.750206,
2001-03-07, 01:49:01,VALID,917.356,VALID,0,VALID,99.4509,VALID,-0.101885,VALID,18.8489,VALID,244,VALID,0.443576,
2001-03-07, 01:50:00,VALID,917.352,VALID,0,VALID,99.442,VALID,-0.0339617,VALID,18.8422,VALID,244,VALID,0.309598,
2001-03-07, 01:51:00,VALID,917.337,VALID,0,VALID,99.4496,VALID,0.0169808,VALID,18.8314,VALID,244,VALID,0.387458,
2001-03-07, 01:52:01,VALID,917.333,VALID,0,VALID,99.4484,VALID,0.0169808,VALID,18.8378,VALID,243,VALID,0.0696232,
2001-03-07, 01:53:00,VALID,917.331,VALID,0,VALID,99.4433,VALID,0.0339617,VALID,18.805,VALID,243,VALID,0,
2001-03-07, 01:54:00,VALID,917.333,VALID,0,VALID,99.4293,VALID,0.0169808,VALID,18.7437,VALID,243,VALID,0,
2001-03-07, 01:55:01,VALID,917.333,VALID,0,VALID,99.4471,VALID,0,VALID,18.7305,VALID,243,VALID,0,
2001-03-07, 01:56:01,VALID,917.332,VALID,0,VALID,99.4344,VALID,0.0509425,VALID,18.7377,VALID,239,VALID,0.0301339,
2001-03-07, 01:57:01,VALID,917.328,VALID,0,VALID,99.4255,VALID,0.0169808,VALID,18.7017,VALID,185,VALID,0.41913,
2001-03-07, 01:58:01,VALID,917.322,VALID,0,VALID,99.4446,VALID,0.0169808,VALID,18.6923,VALID,176,VALID,0.305377,
2001-03-07, 01:59:00,VALID,917.325,VALID,0,VALID,99.4547,VALID,0,VALID,18.7029,VALID,175,VALID,0.250845,
2001-03-07, 02:00:00,VALID,917.323,VALID,0,VALID,99.4687,VALID,0,VALID,18.7079,VALID,175,VALID,0.015625,
2001-03-07, 02:01:01,VALID,917.306,VALID,0,VALID,99.4751,VALID,0.0169808,VALID,18.7312,VALID,175,VALID,0,
2001-03-07, 02:02:00,VALID,917.309,VALID,0,VALID,99.4814,VALID,0,VALID,18.7278,VALID,175,VALID,0,
2001-03-07, 02:03:00,VALID,917.275,VALID,0,VALID,99.4967,VALID,0.0169808,VALID,18.7444,VALID,175,VALID,0,
2001-03-07, 02:04:01,VALID,917.245,VALID,0,VALID,99.5094,VALID,0.0169808,VALID,18.7698,VALID,175,VALID,0,
2001-03-07, 02:05:01,VALID,917.235,VALID,0,VALID,99.5132,VALID,0,VALID,18.8025,VALID,175,VALID,0.103041,
2001-03-07, 02:06:01,VALID,917.202,VALID,0,VALID,99.5081,VALID,-0.101885,VALID,18.8231,VALID,175,VALID,0.628662,
2001-03-07, 02:07:01,VALID,917.175,VALID,0,VALID,99.4713,VALID,-0.101885,VALID,18.8166,VALID,171,VALID,0.457131,
2001-03-07, 02:08:01,VALID,917.141,VALID,0,VALID,99.4585,VALID,-0.0849042,VALID,18.7746,VALID,178,VALID,0.52567,
2001-03-07, 02:09:01,VALID,917.109,VALID,0,VALID,99.4522,VALID,-0.0679233,VALID,18.7257,VALID,179,VALID,0.851985,
2001-03-07, 02:10:01,VALID,917.062,VALID,0,VALID,99.47,VALID,-0.0849042,VALID,18.713,VALID,178,VALID,0.825827,
2001-03-07, 02:11:01,VALID,917.033,VALID,0,VALID,99.498,VALID,-0.101885,VALID,18.7364,VALID,178,VALID,0.827914,
2001-03-07, 02:12:01,VALID,917.006,VALID,0,VALID,99.4675,VALID,-0.0849042,VALID,18.72,VALID,177,VALID,0.730469,
2001-03-07, 02:13:01,VALID,916.974,VALID,0,VALID,99.4611,VALID,-0.101885,VALID,18.6879,VALID,176,VALID,0.702714,
2001-03-07, 02:14:01,VALID,916.951,VALID,0,VALID,99.4954,VALID,-0.101885,VALID,18.6849,VALID,175,VALID,0.854688,
2001-03-07, 02:15:01,VALID,916.952,VALID,0,VALID,99.5132,VALID,-0.101885,VALID,18.6939,VALID,175,VALID,1.08425,
2001-03-07, 02:16:01,VALID,916.935,VALID,0,VALID,99.4967,VALID,-0.101885,VALID,18.7071,VALID,175,VALID,1.03378,
2001-03-07, 02:17:01,VALID,916.941,VALID,0,VALID,99.5005,VALID,-0.0679233,VALID,18.6874,VALID,190,VALID,0.89147,
2001-03-07, 02:18:01,VALID,916.935,VALID,0,VALID,99.4992,VALID,-0.0509425,VALID,18.6743,VALID,199,VALID,0.693604,
2001-03-07, 02:19:01,VALID,916.93,VALID,0,VALID,99.5323,VALID,-0.0849042,VALID,18.7105,VALID,197,VALID,0.871394,
2001-03-07, 02:20:01,VALID,916.916,VALID,0,VALID,99.5501,VALID,-0.0849042,VALID,18.7426,VALID,191,VALID,0.752009,
2001-03-07, 02:21:01,VALID,916.908,VALID,0,VALID,99.5374,VALID,-0.0849042,VALID,18.7583,VALID,189,VALID,0.713049,
2001-03-07, 02:22:01,VALID,916.878,VALID,0,VALID,99.5666,VALID,-0.101885,VALID,18.7943,VALID,180,VALID,0.601792,
2001-03-07, 02:23:00,VALID,916.855,VALID,0,VALID,99.5577,VALID,-0.101885,VALID,18.8233,VALID,172,VALID,0.589949,
2001-03-07, 02:24:00,VALID,916.834,VALID,0,VALID,99.5247,VALID,-0.0509425,VALID,18.7906,VALID,155,VALID,0.576686,
2001-03-07, 02:25:00,VALID,916.8,VALID,0,VALID,99.5221,VALID,-0.101885,VALID,18.7331,VALID,141,VALID,0.567845,
2001-03-07, 02:26:00,VALID,916.781,VALID,0,VALID,99.5285,VALID,-0.101885,VALID,18.7071,VALID,138,VALID,0.602902,
2001-03-07, 02:27:00,VALID,916.763,VALID,0,VALID,99.5476,VALID,-0.0679233,VALID,18.7105,VALID,138,VALID,0.68011,
2001-03-07, 02:28:00,VALID,916.733,VALID,0,VALID,99.5717,VALID,-0.0849042,VALID,18.7331,VALID,138,VALID,0.650965,
2001-03-07, 02:29:00,VALID,916.718,VALID,0,VALID,99.5514,VALID,-0.0849042,VALID,18.7488,VALID,138,VALID,0.355574,
2001-03-07, 02:30:00,VALID,916.714,VALID,0,VALID,99.5552,VALID,-0.0679233,VALID,18.7652,VALID,158,VALID,0.239014,
2001-03-07, 02:31:00,VALID,916.711,VALID,0,VALID,99.5577,VALID,-0.0849042,VALID,18.7684,VALID,169,VALID,0.00580929,
2001-03-07, 02:32:00,VALID,916.728,VALID,0,VALID,99.5628,VALID,-0.0679233,VALID,18.7714,VALID,169,VALID,0,
2001-03-07, 02:33:00,VALID,916.716,VALID,0,VALID,99.5603,VALID,-0.0339617,VALID,18.7612,VALID,169,VALID,0,
2001-03-07, 02:34:00,VALID,916.7,VALID,0,VALID,99.5666,VALID,-0.0169808,VALID,18.7749,VALID,175,VALID,0,
2001-03-07, 02:35:00,VALID,916.676,VALID,0,VALID,99.5616,VALID,0,VALID,18.7843,VALID,178,VALID,0,
2001-03-07, 02:36:00,VALID,916.641,VALID,0,VALID,99.5552,VALID,0.0509425,VALID,18.7698,VALID,180,VALID,0.204564,
2001-03-07, 02:37:00,VALID,916.626,VALID,0,VALID,99.545,VALID,0.0509425,VALID,18.7601,VALID,180,VALID,0.445313,
2001-03-07, 02:38:00,VALID,916.6,VALID,0,VALID,99.5374,VALID,0.0339617,VALID,18.7248,VALID,178,VALID,0.421875,
2001-03-07, 02:39:00,VALID,916.587,VALID,0,VALID,99.5259,VALID,0.0509425,VALID,18.6726,VALID,151,VALID,0.484164,
2001-03-07, 02:40:00,VALID,916.577,VALID,0,VALID,99.5374,VALID,0.0849042,VALID,18.6436,VALID,140,VALID,0.587086,
2001-03-07, 02:41:00,VALID,916.557,VALID,0.2,VALID,99.5641,VALID,0.0679233,VALID,18.6729,VALID,140,VALID,0.57348,
2001-03-07, 02:42:00,VALID,916.545,VALID,0,VALID,99.5501,VALID,0.0339617,VALID,18.6694,VALID,140,VALID,0.376709,
2001-03-07, 02:43:00,VALID,916.532,VALID,0,VALID,99.5196,VALID,0.0679233,VALID,18.5984,VALID,140,VALID,0.340946,
2001-03-07, 02:44:00,VALID,916.53,VALID,0,VALID,99.5094,VALID,0.0169808,VALID,18.5405,VALID,140,VALID,0.393304,
2001-03-07, 02:45:00,VALID,916.518,VALID,0,VALID,99.512,VALID,0.0169808,VALID,18.489,VALID,140,VALID,0.212204,
2001-03-07, 02:46:00,VALID,916.512,VALID,0,VALID,99.5158,VALID,0,VALID,18.4468,VALID,140,VALID,0.271829,
2001-03-07, 02:47:00,VALID,916.512,VALID,0,VALID,99.5272,VALID,0.0339617,VALID,18.4242,VALID,128,VALID,0.401816,
2001-03-07, 02:48:00,VALID,916.5,VALID,0,VALID,99.531,VALID,0.0509425,VALID,18.4078,VALID,113,VALID,0.598273,
2001-03-07, 02:49:00,VALID,916.501,VALID,0,VALID,99.5488,VALID,0.0339617,VALID,18.3984,VALID,113,VALID,0.862048,
2001-03-07, 02:50:00,VALID,916.497,VALID,0,VALID,99.5743,VALID,0.0509425,VALID,18.4408,VALID,110,VALID,1.14375,
2001-03-07, 02:51:00,VALID,916.497,VALID,0,VALID,99.587,VALID,0.0169808,VALID,18.4987,VALID,117,VALID,0.893792,
2001-03-07, 02:52:00,VALID,916.495,VALID,0,VALID,99.615,VALID,0.0509425,VALID,18.5702,VALID,133,VALID,0.795956,
2001-03-07, 02:53:00,VALID,916.503,VALID,0,VALID,99.6239,VALID,0.0509425,VALID,18.6051,VALID,132,VALID,0.758446,
2001-03-07, 02:54:00,VALID,916.513,VALID,0,VALID,99.6086,VALID,0,VALID,18.6408,VALID,136,VALID,0.860352,
2001-03-07, 02:55:00,VALID,916.527,VALID,0,VALID,99.6073,VALID,0.0169808,VALID,18.6477,VALID,140,VALID,0.72516,
2001-03-07, 02:56:00,VALID,916.533,VALID,0,VALID,99.5959,VALID,0,VALID,18.6607,VALID,138,VALID,0.573884,
2001-03-07, 02:57:00,VALID,916.552,VALID,0,VALID,99.5933,VALID,0.0169808,VALID,18.6544,VALID,137,VALID,0.535051,
2001-03-07, 02:58:00,VALID,916.551,VALID,0,VALID,99.5794,VALID,0,VALID,18.6021,VALID,135,VALID,0.348346,
2001-03-07, 02:59:00,VALID,916.557,VALID,0,VALID,99.5743,VALID,0.0169808,VALID,18.5605,VALID,135,VALID,0,
2001-03-07, 03:00:00,VALID,916.541,VALID,0,VALID,99.634,VALID,0.0339617,VALID,18.5864,VALID,143,VALID,0.300164,
2001-03-07, 03:01:00,VALID,916.507,VALID,0,VALID,99.6493,VALID,0.0339617,VALID,18.6701,VALID,162,VALID,0.592722,
2001-03-07, 03:02:00,VALID,916.468,VALID,0,VALID,99.6328,VALID,0.0339617,VALID,18.7086,VALID,163,VALID,0.120759,
2001-03-07, 03:03:00,VALID,916.45,VALID,0,VALID,99.62,VALID,0.0509425,VALID,18.7278,VALID,187,VALID,0.449113,
2001-03-07, 03:04:00,VALID,916.444,VALID,0,VALID,99.6404,VALID,0.0169808,VALID,18.7677,VALID,186,VALID,0.289063,
2001-03-07, 03:05:00,VALID,916.435,VALID,0,VALID,99.6264,VALID,0,VALID,18.7709,VALID,196,VALID,0.218328,
2001-03-07, 03:06:00,VALID,916.418,VALID,0,VALID,99.6264,VALID,-0.0509425,VALID,18.7818,VALID,221,VALID,0.507324,
2001-03-07, 03:07:00,VALID,916.421,VALID,0,VALID,99.6226,VALID,-0.0339617,VALID,18.7913,VALID,227,VALID,0.4375,
2001-03-07, 03:08:00,VALID,916.391,VALID,0,VALID,99.6124,VALID,-0.0509425,VALID,18.7843,VALID,219,VALID,0.383929,
2001-03-07, 03:09:00,VALID,916.381,VALID,0,VALID,99.6022,VALID,-0.0849042,VALID,18.7749,VALID,218,VALID,0.25359,
2001-03-07, 03:10:00,VALID,916.349,VALID,0,VALID,99.5972,VALID,-0.0679233,VALID,18.7622,VALID,205,VALID,0.307215,
2001-03-07, 03:11:00,VALID,916.332,VALID,0,VALID,99.5832,VALID,-0.0169808,VALID,18.7066,VALID,156,VALID,0.415118,
2001-03-07, 03:12:00,VALID,916.308,VALID,0,VALID,99.5819,VALID,-0.0339617,VALID,18.6584,VALID,143,VALID,0.491365,
2001-03-07, 03:13:00,VALID,916.289,VALID,0,VALID,99.5972,VALID,-0.0509425,VALID,18.6655,VALID,142,VALID,0.480469,
2001-03-07, 03:14:00,VALID,916.268,VALID,0,VALID,99.6111,VALID,-0.0169808,VALID,18.6681,VALID,142,VALID,0.399554,
2001-03-07, 03:15:00,VALID,916.268,VALID,0,VALID,99.6022,VALID,-0.0849042,VALID,18.6554,VALID,142,VALID,0.247044,
2001-03-07, 03:16:00,VALID,916.273,VALID,0,VALID,99.6175,VALID,-0.0679233,VALID,18.6586,VALID,172,VALID,0.258732,
2001-03-07, 03:17:00,VALID,916.286,VALID,0,VALID,99.6251,VALID,-0.0679233,VALID,18.6849,VALID,177,VALID,0.0846706,
2001-03-07, 03:18:00,VALID,916.308,VALID,0,VALID,99.6035,VALID,-0.0509425,VALID,18.6814,VALID,177,VALID,0,
2001-03-07, 03:19:00,VALID,916.326,VALID,0,VALID,99.6086,VALID,-0.0339617,VALID,18.6681,VALID,177,VALID,0,
2001-03-07, 03:20:00,VALID,916.342,VALID,0,VALID,99.6099,VALID,-0.0509425,VALID,18.6777,VALID,177,VALID,0,
2001-03-07, 03:21:00,VALID,916.348,VALID,0,VALID,99.6111,VALID,-0.0339617,VALID,18.678,VALID,177,VALID,0,
2001-03-07, 03:22:00,VALID,916.346,VALID,0,VALID,99.6061,VALID,-0.0509425,VALID,18.6785,VALID,177,VALID,0,
2001-03-07, 03:23:00,VALID,916.347,VALID,0,VALID,99.6099,VALID,-0.0509425,VALID,18.6715,VALID,177,VALID,0,
2001-03-07, 03:24:00,VALID,916.354,VALID,0,VALID,99.6111,VALID,-0.0339617,VALID,18.6715,VALID,177,VALID,0,
2001-03-07, 03:25:00,VALID,916.366,VALID,0,VALID,99.5972,VALID,-0.0509425,VALID,18.6616,VALID,177,VALID,0.0160362,
2001-03-07, 03:26:00,VALID,916.378,VALID,0,VALID,99.5959,VALID,-0.0849042,VALID,18.6392,VALID,177,VALID,0.0383929,
2001-03-07, 03:27:00,VALID,916.396,VALID,0,VALID,99.6061,VALID,-0.0679233,VALID,18.6288,VALID,241,VALID,0.269003,
2001-03-07, 03:28:00,VALID,916.381,VALID,0,VALID,99.601,VALID,-0.0339617,VALID,18.6388,VALID,257,VALID,0.160846,
2001-03-07, 03:29:00,VALID,916.388,VALID,0,VALID,99.5984,VALID,-0.0169808,VALID,18.6457,VALID,257,VALID,0.102829,
2001-03-07, 03:30:00,VALID,916.381,VALID,0,VALID,99.6162,VALID,-0.0169808,VALID,18.6355,VALID,257,VALID,0,
2001-03-07, 03:31:00,VALID,916.393,VALID,0,VALID,99.615,VALID,-0.0849042,VALID,18.6653,VALID,257,VALID,0,